AHY8234 UGTB-UBBB

Flight info

Callsign AHY8234
Flight time 0h 48m
Altitude 33000
Route DISKA M737 VERCA M747 LUSAL N319 PENOB T447 INSAN
Aircraft B77W/H-SDE1E2E3FGHIJ2J3J4J5M1RWXY/LB1D1

Departure

Time 2026-04-22 10:56
Airport Tbilisi International Airport (UGTB)

Arrival

Time 2026-04-22 11:44
Airport Heydar Aliyev International Airport (UBBB)
Time Latitude Longitude Altitude Speed Heading
2026-04-22 10:43 41.66886 44.96332 1531 ft 0 kts 43°
2026-04-22 10:53 41.66883 44.96329 1531 ft 4 kts 43°
2026-04-22 10:53 41.66841 44.96269 1522 ft 13 kts 64°
2026-04-22 10:53 41.66814 44.96300 1525 ft 21 kts 128°
2026-04-22 10:53 41.66727 44.96412 1524 ft 0 kts 162°
2026-04-22 10:54 41.66698 44.96420 1525 ft 17 kts 175°
2026-04-22 10:54 41.66487 44.96369 1524 ft 41 kts 195°
2026-04-22 10:54 41.66170 44.96323 1526 ft 48 kts 158°
2026-04-22 10:54 41.65932 44.96593 1524 ft 17 kts 158°
2026-04-22 10:55 41.65865 44.96571 1524 ft 15 kts 224°
2026-04-22 10:55 41.65867 44.96432 1523 ft 22 kts 306°
2026-04-22 10:55 41.66239 44.95951 1527 ft 132 kts 316°
2026-04-22 10:55 41.67531 44.94284 1964 ft 233 kts 315°
2026-04-22 10:56 41.68329 44.93180 2860 ft 250 kts 309°
2026-04-22 10:56 41.69378 44.91289 4501 ft 254 kts 308°
2026-04-22 10:56 41.70548 44.89537 5542 ft 258 kts 319°
2026-04-22 10:56 41.72137 44.88415 6446 ft 264 kts 353°
2026-04-22 10:57 41.73953 44.88699 7419 ft 268 kts 25°
2026-04-22 10:57 41.74235 44.88876 7588 ft 269 kts 29°
2026-04-22 10:58 41.74523 44.89095 7773 ft 270 kts 33°
2026-04-22 10:58 41.75880 44.90768 8687 ft 281 kts 54°
2026-04-22 10:58 41.76473 44.92172 9281 ft 289 kts 68°
2026-04-22 10:59 41.76666 44.92929 9569 ft 292 kts 75°
2026-04-22 10:59 41.76853 44.94886 10269 ft 297 kts 92°
2026-04-22 10:59 41.76331 44.97607 10989 ft 315 kts 120°
2026-04-22 10:59 41.75017 44.99906 11302 ft 343 kts 135°
2026-04-22 11:00 41.73172 45.02156 11557 ft 373 kts 144°
2026-04-22 11:00 41.70959 45.04096 12396 ft 385 kts 149°
2026-04-22 11:00 41.68672 45.06040 13483 ft 393 kts 147°
2026-04-22 11:00 41.66538 45.08026 14462 ft 398 kts 146°
2026-04-22 11:01 41.64261 45.10176 15504 ft 402 kts 146°
2026-04-22 11:01 41.62090 45.12225 16517 ft 406 kts 146°
2026-04-22 11:01 41.59798 45.14388 17605 ft 410 kts 146°
2026-04-22 11:01 41.57454 45.16599 18675 ft 412 kts 146°
2026-04-22 11:02 41.55112 45.18812 19695 ft 414 kts 146°
2026-04-22 11:02 41.53087 45.20730 20601 ft 415 kts 146°
2026-04-22 11:02 41.50735 45.22963 21684 ft 415 kts 146°
2026-04-22 11:02 41.48389 45.25196 22796 ft 414 kts 146°
2026-04-22 11:03 41.46044 45.27431 23874 ft 413 kts 146°
2026-04-22 11:03 41.43724 45.29661 24841 ft 409 kts 144°
2026-04-22 11:03 41.41698 45.32392 25180 ft 428 kts 126°
2026-04-22 11:03 41.40141 45.35882 25333 ft 448 kts 121°
2026-04-22 11:04 41.38570 45.39482 25652 ft 460 kts 124°
2026-04-22 11:04 41.36722 45.43017 26118 ft 467 kts 129°
2026-04-22 11:04 41.34645 45.46353 26734 ft 470 kts 133°
2026-04-22 11:04 41.32424 45.49560 27426 ft 471 kts 135°
2026-04-22 11:05 41.30149 45.52709 28078 ft 473 kts 136°
2026-04-22 11:05 41.27854 45.55890 28633 ft 477 kts 136°
2026-04-22 11:05 41.25565 45.59108 29152 ft 481 kts 135°
2026-04-22 11:05 41.23348 45.62471 29645 ft 486 kts 130°
2026-04-22 11:06 41.21460 45.66215 30226 ft 488 kts 123°
2026-04-22 11:06 41.19894 45.70156 30782 ft 490 kts 117°
2026-04-22 11:06 41.18646 45.74383 31244 ft 493 kts 112°
2026-04-22 11:06 41.17524 45.78707 31708 ft 494 kts 111°
2026-04-22 11:07 41.16419 45.83049 31946 ft 500 kts 111°
2026-04-22 11:07 41.14161 45.91790 31927 ft 496 kts 111°
2026-04-22 11:08 41.11877 46.00399 31927 ft 493 kts 112°
2026-04-22 11:08 41.09590 46.08917 31934 ft 493 kts 112°
2026-04-22 11:09 41.07276 46.17519 31928 ft 494 kts 112°
2026-04-22 11:09 41.04957 46.26128 31928 ft 495 kts 112°
2026-04-22 11:10 41.02654 46.34684 31925 ft 496 kts 112°
2026-04-22 11:10 41.00360 46.43303 31924 ft 497 kts 112°
2026-04-22 11:11 40.98051 46.51955 31920 ft 497 kts 112°
2026-04-22 11:11 40.95736 46.60585 31923 ft 497 kts 112°
2026-04-22 11:12 40.93430 46.69145 31927 ft 497 kts 112°
2026-04-22 11:12 40.91101 46.77766 31936 ft 497 kts 112°
2026-04-22 11:13 40.88764 46.86363 31920 ft 497 kts 112°
2026-04-22 11:13 40.86395 46.94983 31927 ft 498 kts 112°
2026-04-22 11:14 40.84039 47.03532 31919 ft 498 kts 112°
2026-04-22 11:14 40.81662 47.12144 31916 ft 498 kts 112°
2026-04-22 11:15 40.79278 47.20746 31911 ft 499 kts 113°
2026-04-22 11:15 40.76886 47.29348 31907 ft 499 kts 113°
2026-04-22 11:16 40.74487 47.37954 31904 ft 499 kts 113°
2026-04-22 11:16 40.72090 47.46498 31903 ft 499 kts 113°
2026-04-22 11:17 40.69661 47.55096 31904 ft 499 kts 113°
2026-04-22 11:17 40.67226 47.63693 31906 ft 500 kts 113°
2026-04-22 11:18 40.64808 47.72209 31901 ft 500 kts 114°
2026-04-22 11:18 40.62365 47.80791 31899 ft 499 kts 114°
2026-04-22 11:19 40.59893 47.89323 31899 ft 498 kts 117°
2026-04-22 11:19 40.56383 47.97010 31895 ft 490 kts 131°
2026-04-22 11:20 40.51704 48.03433 31894 ft 484 kts 141°
2026-04-22 11:20 40.47009 48.09822 31886 ft 490 kts 130°
2026-04-22 11:21 40.43437 48.17486 31889 ft 496 kts 118°
2026-04-22 11:21 40.40531 48.25724 31897 ft 497 kts 118°
2026-04-22 11:22 40.37629 48.33895 31891 ft 497 kts 118°
2026-04-22 11:22 40.34659 48.42116 31045 ft 506 kts 118°
2026-04-22 11:22 40.33128 48.46317 30015 ft 510 kts 118°
2026-04-22 11:23 40.31611 48.50479 29222 ft 502 kts 118°
2026-04-22 11:23 40.30117 48.54577 28487 ft 494 kts 118°
2026-04-22 11:23 40.28645 48.58612 27811 ft 487 kts 118°
2026-04-22 11:23 40.27189 48.62596 27148 ft 480 kts 118°
2026-04-22 11:24 40.25754 48.66513 26467 ft 475 kts 118°
2026-04-22 11:24 40.24330 48.70396 25815 ft 470 kts 118°
2026-04-22 11:24 40.22923 48.74228 25175 ft 465 kts 118°
2026-04-22 11:24 40.21530 48.78021 24538 ft 461 kts 118°
2026-04-22 11:25 40.20159 48.81750 23923 ft 458 kts 117°
2026-04-22 11:25 40.18950 48.85591 23264 ft 457 kts 112°
2026-04-22 11:25 40.18029 48.89565 22559 ft 455 kts 105°
2026-04-22 11:25 40.17394 48.93609 21914 ft 451 kts 103°
2026-04-22 11:26 40.16803 48.97617 21286 ft 446 kts 103°
2026-04-22 11:26 40.16214 49.01586 20674 ft 442 kts 103°
2026-04-22 11:26 40.15617 49.05523 20066 ft 438 kts 103°
2026-04-22 11:26 40.15016 49.09422 19459 ft 435 kts 103°
2026-04-22 11:27 40.14415 49.13280 18873 ft 431 kts 103°
2026-04-22 11:27 40.13822 49.17061 18300 ft 428 kts 103°
2026-04-22 11:27 40.13225 49.20859 17630 ft 426 kts 103°
2026-04-22 11:27 40.12643 49.24563 16978 ft 405 kts 103°
2026-04-22 11:28 40.12087 49.28101 16438 ft 394 kts 103°
2026-04-22 11:28 40.11559 49.31618 15894 ft 394 kts 99°
2026-04-22 11:28 40.11522 49.35201 15653 ft 400 kts 86°
2026-04-22 11:28 40.11813 49.38871 15425 ft 409 kts 84°
2026-04-22 11:29 40.12120 49.42570 15162 ft 410 kts 85°
2026-04-22 11:29 40.12393 49.46273 14870 ft 410 kts 85°
2026-04-22 11:29 40.12629 49.49920 14117 ft 394 kts 86°
2026-04-22 11:29 40.12839 49.53404 13080 ft 384 kts 86°
2026-04-22 11:30 40.13132 49.56841 12724 ft 382 kts 76°
2026-04-22 11:30 40.14213 49.59988 12614 ft 378 kts 52°
2026-04-22 11:30 40.16037 49.62436 12623 ft 379 kts 34°
2026-04-22 11:30 40.18303 49.64200 12614 ft 378 kts 26°
2026-04-22 11:31 40.20615 49.65796 12605 ft 374 kts 25°
2026-04-22 11:31 40.22905 49.67401 12595 ft 372 kts 26°
2026-04-22 11:31 40.25142 49.69008 12598 ft 371 kts 27°
2026-04-22 11:31 40.27418 49.70606 12549 ft 369 kts 22°
2026-04-22 11:32 40.29875 49.71501 12095 ft 369 kts
2026-04-22 11:32 40.32435 49.71891 11570 ft 371 kts
2026-04-22 11:32 40.35002 49.72261 11013 ft 370 kts
2026-04-22 11:32 40.37528 49.72643 10465 ft 356 kts
2026-04-22 11:33 40.39900 49.73028 9719 ft 340 kts
2026-04-22 11:33 40.42261 49.73420 8601 ft 343 kts
2026-04-22 11:33 40.44628 49.73820 7516 ft 340 kts
2026-04-22 11:33 40.46948 49.74219 6567 ft 331 kts
2026-04-22 11:34 40.49210 49.74610 5584 ft 325 kts
2026-04-22 11:34 40.51457 49.74998 4830 ft 328 kts
2026-04-22 11:34 40.53731 49.75394 4559 ft 327 kts
2026-04-22 11:34 40.55880 49.75969 4333 ft 316 kts 18°
2026-04-22 11:35 40.57850 49.77166 4305 ft 309 kts 25°
2026-04-22 11:35 40.59782 49.78415 4288 ft 305 kts 25°
2026-04-22 11:35 40.61657 49.79594 4271 ft 289 kts 24°
2026-04-22 11:35 40.63454 49.80700 4277 ft 281 kts 24°
2026-04-22 11:36 40.65162 49.81744 4418 ft 259 kts 24°
2026-04-22 11:36 40.66775 49.82725 4360 ft 251 kts 24°
2026-04-22 11:36 40.68314 49.83662 4317 ft 241 kts 24°
2026-04-22 11:36 40.69814 49.84574 4320 ft 236 kts 24°
2026-04-22 11:37 40.71317 49.85497 4306 ft 238 kts 27°
2026-04-22 11:37 40.72649 49.86793 4301 ft 239 kts 41°
2026-04-22 11:37 40.73875 49.88291 4307 ft 240 kts 43°
2026-04-22 11:37 40.74983 49.89921 4291 ft 238 kts 60°
2026-04-22 11:38 40.75325 49.91282 4298 ft 237 kts 83°
2026-04-22 11:38 40.75062 49.93387 4299 ft 236 kts 116°
2026-04-22 11:38 40.71944 49.95830 4302 ft 231 kts 166°
2026-04-22 11:39 40.70382 49.96319 4284 ft 230 kts 167°
2026-04-22 11:39 40.68802 49.96812 3966 ft 233 kts 167°
2026-04-22 11:39 40.67758 49.97140 3767 ft 232 kts 167°
2026-04-22 11:39 40.66196 49.97633 3458 ft 229 kts 167°
2026-04-22 11:40 40.64642 49.98125 3155 ft 229 kts 167°
2026-04-22 11:40 40.63092 49.98616 2848 ft 228 kts 167°
2026-04-22 11:40 40.61550 49.99105 2535 ft 227 kts 167°
2026-04-22 11:40 40.60011 49.99591 2233 ft 228 kts 167°
2026-04-22 11:41 40.58482 50.00075 1927 ft 227 kts 166°
2026-04-22 11:41 40.56981 50.00549 1623 ft 217 kts 166°
2026-04-22 11:41 40.55553 50.01001 1314 ft 204 kts 165°
2026-04-22 11:41 40.54236 50.01416 1053 ft 184 kts 165°
2026-04-22 11:42 40.53062 50.01790 779 ft 161 kts 165°
2026-04-22 11:42 40.52034 50.02119 510 ft 143 kts 167°
2026-04-22 11:42 40.51443 50.02315 414 ft 146 kts 166°
2026-04-22 11:43 40.51334 50.02355 394 ft 146 kts 166°
2026-04-22 11:43 40.50337 50.02675 266 ft 146 kts 168°
2026-04-22 11:43 40.49342 50.02973 137 ft 147 kts 169°
2026-04-22 11:44 40.48428 50.03263 15 ft 125 kts 168°
2026-04-22 11:44 40.47783 50.03452 8 ft 46 kts 167°
2026-04-22 11:44 40.47689 50.03542 8 ft 1 kts 115°